Location: Unspecified
(0.0000°N, 0.0000°E)
Time: 08:35:21
(UTC+00:00)

XW-2C - Visible Passes

Search period start: 21 July 2024 00:00
Search period end: 31 July 2024 00:00
Orbit: 425 x 438 km, 97.5° (Epoch: 21 July)

Date Brightness Start Highest point End Pass type
(mag) Time Alt. Az. Time Alt. Az. Time Alt. Az.
21 Jul ? 19:10:10 10° SSW 19:13:00 26° WSW 19:15:50 10° NW visible
22 Jul ? 18:29:17 10° SSE 18:32:30 46° E 18:35:40 10° N visible
23 Jul ? 19:21:42 10° SW 19:23:59 18° WSW 19:26:16 10° WNW visible
24 Jul ? 18:40:01 10° SSE 18:43:19 78° E 18:46:37 10° N visible
25 Jul ? 19:33:23 10° SW 19:34:39 12° WSW 19:35:55 10° W visible
26 Jul ? 18:50:34 10° S 18:53:51 65° W 18:57:05 10° NNW visible
28 Jul ? 19:00:54 10° S 19:04:02 40° W 19:07:08 10° NNW visible
30 Jul ? 19:11:03 10° SSW 19:13:54 27° WSW 19:16:43 10° NW visible
